Dewpoint
34 34 35 35 35 35 35 34 37 35 32 32 33 31 32 29 27 28 26 25 26 28
28 26 27 30 32 34 36 36 36 32 34 35 35 31 30 28 26 27 26 27 28 28
23 26 28 31 31 33 35 35 35 34 34 32 29 29 28 27 26 27 28 29 27 22
26 27 27 27 31 32 33 34 33 31 32 30 28 30 25 24 24 27 27 22 20 19
27 27 27 27 29 31 30 30 30 31 32 32 28 25 23 23 25 23 20 18 19 18
27 28 28 28 27 28 28 29 30 32 30 27 23 22 23 24 23 19 18 19 19 18
28 29 30 30 30 30 31 32 31 28 28 22 20 22 23 21 19 19 20 20 19 19
29 30 30 31 32 33 33 33 31 31 22 19 21 22 20 19 20 20 20 19 20 20
29 30 30 31 32 33 34 30 23 17 19 21 21 24 26 27 27 25 22 23 24 23
29 29 29 31 32 32 32 30 27 21 22 22 27 28 28 27 23 22 21 18 17 17
29 28 30 30 31 31 31 30 23 22 23 24 23 24 25 23 20 19 17 16 17 17
28 28 29 30 30 29 30 27 22 22 21 15 18 21 19 19 19 18 17 17 17 17
28 28 28 29 27 27 21 20 21 19 17 16 15 17 16 17 17 15 17 19 17 17
27 27 27 25 24 19 21 21 19 18 16 14 15 15 16 16 16 15 18 17 17 18
Wind_Speed
12 10 11 12 16 16 17 14 6 9 7 7 1 3 4 3 2 3 2 5 4 5
13 14 13 16 16 16 15 7 7 7 4 8 8 7 7 8 5 5 7 7 6 7
13 15 15 15 18 17 8 1 7 4 8 7 3 11 9 8 8 7 6 5 4 3
9 11 13 15 15 11 3 3 6 9 6 8 8 11 9 8 7 7 4 2 3 7
7 10 11 12 11 6 4 5 8 4 5 11 10 9 8 8 5 5 5 5 7 11
7 10 11 12 9 7 6 7 7 9 9 8 9 9 7 6 5 5 7 9 10 13
8 10 12 14 13 12 12 13 11 9 9 7 7 8 4 3 5 8 9 10 11 11
9 11 13 13 13 12 12 10 11 13 8 6 4 2 3 4 7 10 12 11 10 10
11 12 14 14 14 13 12 12 8 7 5 3 5 6 6 7 10 11 11 12 11 10
11 14 15 13 13 13 12 11 6 5 3 7 8 10 10 9 9 9 9 12 12 14
13 15 14 13 14 14 12 12 4 4 3 7 7 8 8 9 8 8 10 11 11 13
12 15 15 16 15 15 11 5 6 6 6 6 5 7 9 9 6 9 11 11 12 12
11 13 14 13 14 7 3 6 8 7 6 5 4 7 9 8 4 10 11 10 11 13
12 12 12 11 7 7 4 8 7 7 4 3 3 4 7 9 6 10 8 10 11 11
Wind_Direction
24 4 344 332 321 313 304 299 177 158 148 115 36 273 244 224 233 227 258 257 264 274
28 13 354 338 326 312 300 275 180 126 80 339 355 332 308 268 272 266 262 270 283 279
15 5 353 343 334 325 320 252 149 137 31 4 237 262 255 258 266 274 300 281 278 293
2 355 352 346 334 321 286 162 152 142 173 253 288 297 272 278 295 284 266 258 282 297
341 345 342 330 311 279 203 172 194 223 260 292 291 279 266 281 274 252 267 274 278 293
337 337 327 323 313 290 288 319 298 278 276 309 290 270 257 248 239 247 256 270 298 298
334 324 323 323 314 302 297 303 305 300 301 302 287 276 255 227 245 268 288 307 305 299
320 328 327 319 314 314 303 296 304 307 314 324 299 294 259 268 307 309 311 314 311 305
328 318 317 323 318 308 305 310 338 337 327 39 42 11 359 342 328 322 322 324 319 317
308 310 315 314 307 305 296 298 314 28 49 72 47 36 29 29 11 357 343 331 321 317
299 305 310 306 303 301 295 304 316 117 106 84 48 31 26 3 354 344 327 319 312 316
290 307 313 306 304 302 290 275 173 156 119 76 39 15 1 350 332 324 317 316 318 316
290 304 301 297 298 299 266 203 149 125 111 89 51 15 355 348 330 315 315 313 320 321
287 296 292 296 283 272 213 156 155 145 130 97 53 355 349 345 334 315 314 321 320 317